Year,Month,Day,Hour,Minute,Value (Times are PST for temperature in C)
2015,07,02,00,00,21.70
2015,07,02,00,01,21.70
2015,07,02,00,02,21.70
2015,07,02,00,03,21.70
2015,07,02,00,04,21.70
2015,07,02,00,05,21.70
2015,07,02,00,06,21.70
2015,07,02,00,07,21.70
2015,07,02,00,08,21.70
2015,07,02,00,09,21.60
2015,07,02,00,10,21.60
2015,07,02,00,11,21.60
2015,07,02,00,12,21.60
2015,07,02,00,13,21.60
2015,07,02,00,14,21.60
2015,07,02,00,15,21.60
2015,07,02,00,16,21.60
2015,07,02,00,17,21.60
2015,07,02,00,18,21.60
2015,07,02,00,19,21.60
2015,07,02,00,20,21.60
2015,07,02,00,21,21.50
2015,07,02,00,22,21.50
2015,07,02,00,23,21.50
2015,07,02,00,24,21.50
2015,07,02,00,25,21.40
2015,07,02,00,26,21.40
2015,07,02,00,27,21.40
2015,07,02,00,28,21.40
2015,07,02,00,29,21.40
2015,07,02,00,30,21.40
2015,07,02,00,31,21.30
2015,07,02,00,32,21.30
2015,07,02,00,33,21.40
2015,07,02,00,34,21.40
2015,07,02,00,35,21.40
2015,07,02,00,36,21.30
2015,07,02,00,37,21.30
2015,07,02,00,38,21.30
2015,07,02,00,39,21.30
2015,07,02,00,40,21.30
2015,07,02,00,41,21.30
2015,07,02,00,42,21.30
2015,07,02,00,43,21.20
2015,07,02,00,44,21.20
2015,07,02,00,45,21.20
2015,07,02,00,46,21.20
2015,07,02,00,47,21.20
2015,07,02,00,48,21.10
2015,07,02,00,49,21.10
2015,07,02,00,50,21.10
2015,07,02,00,51,21.10
2015,07,02,00,52,21.10
2015,07,02,00,53,21.10
2015,07,02,00,54,21.10
2015,07,02,00,55,21.10
2015,07,02,00,56,21.00
2015,07,02,00,57,21.00
2015,07,02,00,58,21.00
2015,07,02,00,59,21.00
2015,07,02,01,00,20.90
2015,07,02,01,01,20.90
2015,07,02,01,02,20.90
2015,07,02,01,03,20.90
2015,07,02,01,04,20.90
2015,07,02,01,05,20.90
2015,07,02,01,06,20.90
2015,07,02,01,07,20.90
2015,07,02,01,08,20.90
2015,07,02,01,09,20.80
2015,07,02,01,10,20.80
2015,07,02,01,11,20.80
2015,07,02,01,12,20.80
2015,07,02,01,13,20.70
2015,07,02,01,14,20.70
2015,07,02,01,15,20.70
2015,07,02,01,16,20.70
2015,07,02,01,17,20.70
2015,07,02,01,18,20.60
2015,07,02,01,19,20.60
2015,07,02,01,20,20.60
2015,07,02,01,21,20.60
2015,07,02,01,22,20.60
2015,07,02,01,23,20.60
2015,07,02,01,24,20.50
2015,07,02,01,25,20.50
2015,07,02,01,26,20.50
2015,07,02,01,27,20.40
2015,07,02,01,28,20.40
2015,07,02,01,29,20.40
2015,07,02,01,30,20.30
2015,07,02,01,31,20.20
2015,07,02,01,32,20.10
2015,07,02,01,33,20.00
2015,07,02,01,34,20.00
2015,07,02,01,35,19.90
2015,07,02,01,36,19.90
2015,07,02,01,37,19.90
2015,07,02,01,38,19.80
2015,07,02,01,39,19.80
2015,07,02,01,40,19.80
2015,07,02,01,41,19.80
2015,07,02,01,42,19.70
2015,07,02,01,43,19.70
2015,07,02,01,44,19.70
2015,07,02,01,45,19.70
2015,07,02,01,46,19.70
2015,07,02,01,47,19.60
2015,07,02,01,48,19.60
2015,07,02,01,49,19.60
2015,07,02,01,50,19.60
2015,07,02,01,51,19.60
2015,07,02,01,52,19.60
2015,07,02,01,53,19.60
2015,07,02,01,54,19.60
2015,07,02,01,55,19.60
2015,07,02,01,56,19.60
2015,07,02,01,57,19.60
2015,07,02,01,58,19.60
2015,07,02,01,59,19.60
2015,07,02,02,00,19.60
2015,07,02,02,01,19.60
2015,07,02,02,02,19.50
2015,07,02,02,03,19.50
2015,07,02,02,04,19.40
2015,07,02,02,05,19.40
2015,07,02,02,06,19.30
2015,07,02,02,07,19.30
2015,07,02,02,08,19.30
2015,07,02,02,09,19.30
2015,07,02,02,10,19.30
2015,07,02,02,11,19.20
2015,07,02,02,12,19.20
2015,07,02,02,13,19.20
2015,07,02,02,14,19.20
2015,07,02,02,15,19.20
2015,07,02,02,16,19.20
2015,07,02,02,17,19.10
2015,07,02,02,18,19.10
2015,07,02,02,19,19.10
2015,07,02,02,20,19.10
2015,07,02,02,21,19.00
2015,07,02,02,22,19.00
2015,07,02,02,23,19.00
2015,07,02,02,24,18.90
2015,07,02,02,25,18.90
2015,07,02,02,26,18.90
2015,07,02,02,27,18.90
2015,07,02,02,28,18.90
2015,07,02,02,29,18.90
2015,07,02,02,30,18.80
2015,07,02,02,31,18.80
2015,07,02,02,32,18.80
2015,07,02,02,33,18.80
2015,07,02,02,34,18.80
2015,07,02,02,35,18.80
2015,07,02,02,36,18.80
2015,07,02,02,37,18.80
2015,07,02,02,38,18.80
2015,07,02,02,39,18.80
2015,07,02,02,40,18.80
2015,07,02,02,41,18.80
2015,07,02,02,42,18.80
2015,07,02,02,43,18.80
2015,07,02,02,44,18.80
2015,07,02,02,45,18.70
2015,07,02,02,46,18.70
2015,07,02,02,47,18.70
2015,07,02,02,48,18.70
2015,07,02,02,49,18.80
2015,07,02,02,50,18.80
2015,07,02,02,51,18.90
2015,07,02,02,52,18.90
2015,07,02,02,53,19.00
2015,07,02,02,54,19.00
2015,07,02,02,55,19.10
2015,07,02,02,56,19.10
2015,07,02,02,57,19.10
2015,07,02,02,58,19.10
2015,07,02,02,59,19.00
2015,07,02,03,00,19.00
2015,07,02,03,01,18.90
2015,07,02,03,02,18.80
2015,07,02,03,03,18.80
2015,07,02,03,04,18.70
2015,07,02,03,05,18.70
2015,07,02,03,06,18.60
2015,07,02,03,07,18.50
2015,07,02,03,08,18.40
2015,07,02,03,09,18.20
2015,07,02,03,10,18.10
2015,07,02,03,11,18.00
2015,07,02,03,12,18.00
2015,07,02,03,13,17.90
2015,07,02,03,14,17.90
2015,07,02,03,15,17.90
2015,07,02,03,16,17.80
2015,07,02,03,17,17.80
2015,07,02,03,18,17.80
2015,07,02,03,19,17.80
2015,07,02,03,20,17.80
2015,07,02,03,21,17.80
2015,07,02,03,22,17.80
2015,07,02,03,23,17.80
2015,07,02,03,24,17.80
2015,07,02,03,25,17.80
2015,07,02,03,26,17.80
2015,07,02,03,27,17.80
2015,07,02,03,28,17.80
2015,07,02,03,29,17.80
2015,07,02,03,30,17.80
2015,07,02,03,31,17.80
2015,07,02,03,32,17.80
2015,07,02,03,33,17.80
2015,07,02,03,34,17.80
2015,07,02,03,35,17.80
2015,07,02,03,36,17.80
2015,07,02,03,37,17.80
2015,07,02,03,38,17.80
2015,07,02,03,39,17.90
2015,07,02,03,40,17.90
2015,07,02,03,41,17.90
2015,07,02,03,42,17.90
2015,07,02,03,43,18.00
2015,07,02,03,44,18.00
2015,07,02,03,45,18.00
2015,07,02,03,46,18.00
2015,07,02,03,47,17.90
2015,07,02,03,48,17.90
2015,07,02,03,49,17.90
2015,07,02,03,50,17.90
2015,07,02,03,51,17.90
2015,07,02,03,52,17.90
2015,07,02,03,53,17.90
2015,07,02,03,54,17.90
2015,07,02,03,55,17.90
2015,07,02,03,56,17.90
2015,07,02,03,57,18.00
2015,07,02,03,58,18.00
2015,07,02,03,59,18.10
2015,07,02,04,00,18.10
2015,07,02,04,01,18.10
2015,07,02,04,02,18.10
2015,07,02,04,03,18.10
2015,07,02,04,04,18.10
2015,07,02,04,05,18.10
2015,07,02,04,06,18.10
2015,07,02,04,07,18.10
2015,07,02,04,08,18.10
2015,07,02,04,09,18.00
2015,07,02,04,10,18.00
2015,07,02,04,11,18.00
2015,07,02,04,12,18.00
2015,07,02,04,13,17.90
2015,07,02,04,14,17.90
2015,07,02,04,15,17.90
2015,07,02,04,16,17.90
2015,07,02,04,17,17.90
2015,07,02,04,18,17.80
2015,07,02,04,19,17.80
2015,07,02,04,20,17.80
2015,07,02,04,21,17.80
2015,07,02,04,22,17.80
2015,07,02,04,23,17.80
2015,07,02,04,24,17.80
2015,07,02,04,25,17.80
2015,07,02,04,26,17.80
2015,07,02,04,27,17.80
2015,07,02,04,28,17.90
2015,07,02,04,29,17.90
2015,07,02,04,30,17.90
2015,07,02,04,31,17.90
2015,07,02,04,32,17.90
2015,07,02,04,33,17.90
2015,07,02,04,34,17.90
2015,07,02,04,35,17.80
2015,07,02,04,36,17.80
2015,07,02,04,37,17.80
2015,07,02,04,38,17.80
2015,07,02,04,39,17.80
2015,07,02,04,40,17.80
2015,07,02,04,41,17.80
2015,07,02,04,42,17.80
2015,07,02,04,43,17.80
2015,07,02,04,44,17.80
2015,07,02,04,45,17.70
2015,07,02,04,46,17.70
2015,07,02,04,47,17.60
2015,07,02,04,48,17.60
2015,07,02,04,49,17.60
2015,07,02,04,50,17.60
2015,07,02,04,51,17.50
2015,07,02,04,52,17.50
2015,07,02,04,53,17.50
2015,07,02,04,54,17.50
2015,07,02,04,55,17.50
2015,07,02,04,56,17.50
2015,07,02,04,57,17.50
2015,07,02,04,58,17.40
2015,07,02,04,59,17.40
2015,07,02,05,00,17.40
2015,07,02,05,01,17.40
2015,07,02,05,02,17.40
2015,07,02,05,03,17.40
2015,07,02,05,04,17.40
2015,07,02,05,05,17.40
2015,07,02,05,06,17.40
2015,07,02,05,07,17.30
2015,07,02,05,08,17.30
2015,07,02,05,09,17.30
2015,07,02,05,10,17.30
2015,07,02,05,11,17.30
2015,07,02,05,12,17.20
2015,07,02,05,13,17.20
2015,07,02,05,14,17.20
2015,07,02,05,15,17.20
2015,07,02,05,16,17.10
2015,07,02,05,17,17.10
2015,07,02,05,18,17.10
2015,07,02,05,19,17.10
2015,07,02,05,20,17.10
2015,07,02,05,21,17.10
2015,07,02,05,22,17.10
2015,07,02,05,23,17.10
2015,07,02,05,24,17.10
2015,07,02,05,25,17.10
2015,07,02,05,26,17.10
2015,07,02,05,27,17.10
2015,07,02,05,28,17.10
2015,07,02,05,29,17.10
2015,07,02,05,30,17.10
2015,07,02,05,31,17.10
2015,07,02,05,32,17.10
2015,07,02,05,33,17.10
2015,07,02,05,34,17.00
2015,07,02,05,35,17.00
2015,07,02,05,36,17.00
2015,07,02,05,37,17.00
2015,07,02,05,38,16.90
2015,07,02,05,39,16.90
2015,07,02,05,40,16.90
2015,07,02,05,41,16.90
2015,07,02,05,42,16.80
2015,07,02,05,43,16.80
2015,07,02,05,44,16.80
2015,07,02,05,45,16.70
2015,07,02,05,46,16.70
2015,07,02,05,47,16.60
2015,07,02,05,48,16.60
2015,07,02,05,49,16.60
2015,07,02,05,50,16.50
2015,07,02,05,51,16.50
2015,07,02,05,52,16.40
2015,07,02,05,53,16.40
2015,07,02,05,54,16.40
2015,07,02,05,55,16.30
2015,07,02,05,56,16.30
2015,07,02,05,57,16.30
2015,07,02,05,58,16.30
2015,07,02,05,59,16.30
2015,07,02,06,00,16.30
2015,07,02,06,01,16.30
2015,07,02,06,02,16.30
2015,07,02,06,03,16.20
2015,07,02,06,04,16.20
2015,07,02,06,05,16.20
2015,07,02,06,06,16.30
2015,07,02,06,07,16.30
2015,07,02,06,08,16.30
2015,07,02,06,09,16.40
2015,07,02,06,10,16.40
2015,07,02,06,11,16.50
2015,07,02,06,12,16.50
2015,07,02,06,13,16.60
2015,07,02,06,14,16.60
2015,07,02,06,15,16.70
2015,07,02,06,16,16.70
2015,07,02,06,17,16.70
2015,07,02,06,18,16.70
2015,07,02,06,19,16.80
2015,07,02,06,20,16.90
2015,07,02,06,21,16.90
2015,07,02,06,22,17.00
2015,07,02,06,23,17.00
2015,07,02,06,24,17.10
2015,07,02,06,25,17.10
2015,07,02,06,26,17.10
2015,07,02,06,27,17.10
2015,07,02,06,28,17.10
2015,07,02,06,29,17.10
2015,07,02,06,30,17.10
2015,07,02,06,31,17.10
2015,07,02,06,32,17.10
2015,07,02,06,33,17.10
2015,07,02,06,34,17.10
2015,07,02,06,35,17.10
2015,07,02,06,36,17.10
2015,07,02,06,37,17.10
2015,07,02,06,38,17.10
2015,07,02,06,39,17.10
2015,07,02,06,40,17.20
2015,07,02,06,41,17.20
2015,07,02,06,42,17.20
2015,07,02,06,43,17.30
2015,07,02,06,44,17.30
2015,07,02,06,45,17.40
2015,07,02,06,46,17.40
2015,07,02,06,47,17.50
2015,07,02,06,48,17.60
2015,07,02,06,49,17.60
2015,07,02,06,50,17.70
2015,07,02,06,51,17.70
2015,07,02,06,52,17.80
2015,07,02,06,53,17.80
2015,07,02,06,54,17.90
2015,07,02,06,55,17.90
2015,07,02,06,56,17.90
2015,07,02,06,57,18.00
2015,07,02,06,58,18.10
2015,07,02,06,59,18.10
2015,07,02,07,00,18.20
2015,07,02,07,01,18.20
2015,07,02,07,02,18.30
2015,07,02,07,03,18.30
2015,07,02,07,04,18.40
2015,07,02,07,05,18.50
2015,07,02,07,06,18.60
2015,07,02,07,07,18.60
2015,07,02,07,08,18.70
2015,07,02,07,09,18.70
2015,07,02,07,10,18.80
2015,07,02,07,11,18.80
2015,07,02,07,12,18.80
2015,07,02,07,13,18.90
2015,07,02,07,14,18.90
2015,07,02,07,15,18.90
2015,07,02,07,16,18.90
2015,07,02,07,17,19.00
2015,07,02,07,18,19.00
2015,07,02,07,19,19.10
2015,07,02,07,20,19.10
2015,07,02,07,21,19.10
2015,07,02,07,22,19.20
2015,07,02,07,23,19.20
2015,07,02,07,24,19.20
2015,07,02,07,25,19.20
2015,07,02,07,26,19.20
2015,07,02,07,27,19.30
2015,07,02,07,28,19.30
2015,07,02,07,29,19.30
2015,07,02,07,30,19.40
2015,07,02,07,31,19.40
2015,07,02,07,32,19.50
2015,07,02,07,33,19.50
2015,07,02,07,34,19.50
2015,07,02,07,35,19.60
2015,07,02,07,36,19.70
2015,07,02,07,37,19.70
2015,07,02,07,38,19.70
2015,07,02,07,39,19.80
2015,07,02,07,40,19.80
2015,07,02,07,41,19.90
2015,07,02,07,42,19.90
2015,07,02,07,43,20.00
2015,07,02,07,44,20.10
2015,07,02,07,45,20.20
2015,07,02,07,46,20.30
2015,07,02,07,47,20.40
2015,07,02,07,48,20.40
2015,07,02,07,49,20.50
2015,07,02,07,50,20.60
2015,07,02,07,51,20.70
2015,07,02,07,52,20.70
2015,07,02,07,53,20.80
2015,07,02,07,54,20.90
2015,07,02,07,55,20.90
2015,07,02,07,56,21.00
2015,07,02,07,57,21.20
2015,07,02,07,58,21.30
2015,07,02,07,59,21.40
2015,07,02,08,00,21.50
2015,07,02,08,01,21.60
2015,07,02,08,02,21.70
2015,07,02,08,03,21.80
2015,07,02,08,04,21.80
2015,07,02,08,05,21.90
2015,07,02,08,06,22.00
2015,07,02,08,07,22.10
2015,07,02,08,08,22.10
2015,07,02,08,09,22.20
2015,07,02,08,10,22.30
2015,07,02,08,11,22.30
2015,07,02,08,12,22.40
2015,07,02,08,13,22.50
2015,07,02,08,14,22.60
2015,07,02,08,15,22.60
2015,07,02,08,16,22.70
2015,07,02,08,17,22.70
2015,07,02,08,18,22.70
2015,07,02,08,19,22.70
2015,07,02,08,20,22.70
2015,07,02,08,21,22.80
2015,07,02,08,22,22.80
2015,07,02,08,23,22.80
2015,07,02,08,24,22.80
2015,07,02,08,25,22.80
2015,07,02,08,26,22.80
2015,07,02,08,27,22.80
2015,07,02,08,28,22.80
2015,07,02,08,29,22.80
2015,07,02,08,30,22.80
2015,07,02,08,31,22.80
2015,07,02,08,32,22.80
2015,07,02,08,33,22.80
2015,07,02,08,34,22.80
2015,07,02,08,35,22.90
2015,07,02,08,36,22.90
2015,07,02,08,37,22.90
2015,07,02,08,38,22.80
2015,07,02,08,39,22.80
2015,07,02,08,40,22.70
2015,07,02,08,41,22.70
2015,07,02,08,42,22.60
2015,07,02,08,43,22.60
2015,07,02,08,44,22.60
2015,07,02,08,45,22.60
2015,07,02,08,46,22.60
2015,07,02,08,47,22.60
2015,07,02,08,48,22.60
2015,07,02,08,49,22.60
2015,07,02,08,50,22.60
2015,07,02,08,51,22.50
2015,07,02,08,52,22.50
2015,07,02,08,53,22.50
2015,07,02,08,54,22.50
2015,07,02,08,55,22.50
2015,07,02,08,56,22.60
2015,07,02,08,57,22.60
2015,07,02,08,58,22.60
2015,07,02,08,59,22.70
2015,07,02,09,00,22.70
2015,07,02,09,01,22.70
2015,07,02,09,02,22.80
2015,07,02,09,03,22.80
2015,07,02,09,04,22.80
2015,07,02,09,05,22.80
2015,07,02,09,06,22.90
2015,07,02,09,07,22.90
2015,07,02,09,08,22.90
2015,07,02,09,09,22.90
2015,07,02,09,10,23.00
2015,07,02,09,11,23.00
2015,07,02,09,12,23.10
2015,07,02,09,13,23.10
2015,07,02,09,14,23.20
2015,07,02,09,15,23.20
2015,07,02,09,16,23.20
2015,07,02,09,17,23.20
2015,07,02,09,18,23.20
2015,07,02,09,19,23.10
2015,07,02,09,20,23.10
2015,07,02,09,21,23.10
2015,07,02,09,22,23.20
2015,07,02,09,23,23.20
2015,07,02,09,24,23.30
2015,07,02,09,25,23.30
2015,07,02,09,26,23.40
2015,07,02,09,27,23.40
2015,07,02,09,28,23.40
2015,07,02,09,29,23.40
2015,07,02,09,30,23.40
2015,07,02,09,31,23.30
2015,07,02,09,32,23.20
2015,07,02,09,33,23.00
2015,07,02,09,34,22.80
2015,07,02,09,35,22.70
2015,07,02,09,36,22.50
2015,07,02,09,37,22.30
2015,07,02,09,38,22.30
2015,07,02,09,39,22.20
2015,07,02,09,40,22.20
2015,07,02,09,41,22.10
2015,07,02,09,42,22.10
2015,07,02,09,43,22.10
2015,07,02,09,44,22.10
2015,07,02,09,45,22.10
2015,07,02,09,46,22.20
2015,07,02,09,47,22.30
2015,07,02,09,48,22.40
2015,07,02,09,49,22.50
2015,07,02,09,50,22.60
2015,07,02,09,51,22.70
2015,07,02,09,52,22.80
2015,07,02,09,53,22.90
2015,07,02,09,54,22.90
2015,07,02,09,55,23.00
2015,07,02,09,56,23.00
2015,07,02,09,57,23.00
2015,07,02,09,58,23.00
2015,07,02,09,59,22.90
2015,07,02,10,00,22.80
2015,07,02,10,01,22.70
2015,07,02,10,02,22.60
2015,07,02,10,03,22.50
2015,07,02,10,04,22.50
2015,07,02,10,05,22.40
2015,07,02,10,06,22.30
2015,07,02,10,07,22.40
2015,07,02,10,08,22.40
2015,07,02,10,09,22.40
2015,07,02,10,10,22.50
2015,07,02,10,11,22.60
2015,07,02,10,12,22.70
2015,07,02,10,13,22.80
2015,07,02,10,14,22.80
2015,07,02,10,15,22.90
2015,07,02,10,16,22.90
2015,07,02,10,17,23.00
2015,07,02,10,18,23.10
2015,07,02,10,19,23.20
2015,07,02,10,20,23.30
2015,07,02,10,21,23.40
2015,07,02,10,22,23.50
2015,07,02,10,23,23.50
2015,07,02,10,24,23.60
2015,07,02,10,25,23.60
2015,07,02,10,26,23.60
2015,07,02,10,27,23.60
2015,07,02,10,28,23.60
2015,07,02,10,29,23.60
2015,07,02,10,30,23.60
2015,07,02,10,31,23.60
2015,07,02,10,32,23.60
2015,07,02,10,33,23.70
2015,07,02,10,34,23.70
2015,07,02,10,35,23.80
2015,07,02,10,36,23.80
2015,07,02,10,37,23.80
2015,07,02,10,38,23.80
2015,07,02,10,39,23.90
2015,07,02,10,40,23.90
2015,07,02,10,41,23.90
2015,07,02,10,42,23.90
2015,07,02,10,43,23.90
2015,07,02,10,44,23.90
2015,07,02,10,45,23.90
2015,07,02,10,46,23.90
2015,07,02,10,47,24.00
2015,07,02,10,48,24.10
2015,07,02,10,49,24.10
2015,07,02,10,50,24.20
2015,07,02,10,51,24.30
2015,07,02,10,52,24.40
2015,07,02,10,53,24.50
2015,07,02,10,54,24.60
2015,07,02,10,55,24.60
2015,07,02,10,56,24.70
2015,07,02,10,57,24.80
2015,07,02,10,58,24.80
2015,07,02,10,59,24.80
2015,07,02,11,00,24.80
2015,07,02,11,01,24.90
2015,07,02,11,02,24.90
2015,07,02,11,03,24.90
2015,07,02,11,04,24.90
2015,07,02,11,05,24.90
2015,07,02,11,06,25.00
2015,07,02,11,07,25.00
2015,07,02,11,08,25.10
2015,07,02,11,09,25.10
2015,07,02,11,10,25.20
2015,07,02,11,11,25.30
2015,07,02,11,12,25.30
2015,07,02,11,13,25.30
2015,07,02,11,14,25.30
2015,07,02,11,15,25.30
2015,07,02,11,16,25.30
2015,07,02,11,17,25.30
2015,07,02,11,18,25.40
2015,07,02,11,19,25.40
2015,07,02,11,20,25.40
2015,07,02,11,21,25.40
2015,07,02,11,22,25.50
2015,07,02,11,23,25.50
2015,07,02,11,24,25.50
2015,07,02,11,25,25.60
2015,07,02,11,26,25.60
2015,07,02,11,27,25.60
2015,07,02,11,28,25.70
2015,07,02,11,29,25.70
2015,07,02,11,30,25.80
2015,07,02,11,31,25.80
2015,07,02,11,32,25.80
2015,07,02,11,33,25.80
2015,07,02,11,34,25.70
2015,07,02,11,35,25.70
2015,07,02,11,36,25.60
2015,07,02,11,37,25.60
2015,07,02,11,38,25.70
2015,07,02,11,39,25.80
2015,07,02,11,40,25.90
2015,07,02,11,41,26.00
2015,07,02,11,42,26.00
2015,07,02,11,43,25.90
2015,07,02,11,44,25.90
2015,07,02,11,45,25.90
2015,07,02,11,46,25.90
2015,07,02,11,47,25.90
2015,07,02,11,48,25.90
2015,07,02,11,49,26.00
2015,07,02,11,50,26.00
2015,07,02,11,51,26.10
2015,07,02,11,52,26.10
2015,07,02,11,53,26.20
2015,07,02,11,54,26.20
2015,07,02,11,55,26.30
2015,07,02,11,56,26.40
2015,07,02,11,57,26.50
2015,07,02,11,58,26.50
2015,07,02,11,59,26.50
2015,07,02,12,00,26.50
2015,07,02,12,01,26.40
2015,07,02,12,02,26.40
2015,07,02,12,03,26.40
2015,07,02,12,04,26.30
2015,07,02,12,05,26.30
2015,07,02,12,06,26.20
2015,07,02,12,07,26.20
2015,07,02,12,08,26.10
2015,07,02,12,09,26.00
2015,07,02,12,10,25.90
2015,07,02,12,11,25.80
2015,07,02,12,12,25.80
2015,07,02,12,13,25.80
2015,07,02,12,14,25.80
2015,07,02,12,15,25.80
2015,07,02,12,16,25.90
2015,07,02,12,17,26.10
2015,07,02,12,18,26.20
2015,07,02,12,19,26.20
2015,07,02,12,20,26.30
2015,07,02,12,21,26.20
2015,07,02,12,22,26.20
2015,07,02,12,23,26.10
2015,07,02,12,24,26.10
2015,07,02,12,25,26.10
2015,07,02,12,26,26.10
2015,07,02,12,27,26.20
2015,07,02,12,28,26.30
2015,07,02,12,29,26.40
2015,07,02,12,30,26.50
2015,07,02,12,31,26.60
2015,07,02,12,32,26.60
2015,07,02,12,33,26.70
2015,07,02,12,34,26.60
2015,07,02,12,35,26.50
2015,07,02,12,36,26.50
2015,07,02,12,37,26.40
2015,07,02,12,38,26.40
2015,07,02,12,39,26.40
2015,07,02,12,40,26.40
2015,07,02,12,41,26.40
2015,07,02,12,42,26.30
2015,07,02,12,43,26.30
2015,07,02,12,44,26.30
2015,07,02,12,45,26.30
2015,07,02,12,46,26.30
2015,07,02,12,47,26.40
2015,07,02,12,48,26.40
2015,07,02,12,49,26.50
2015,07,02,12,50,26.60
2015,07,02,12,51,26.60
2015,07,02,12,52,26.60
2015,07,02,12,53,26.70
2015,07,02,12,54,26.70
2015,07,02,12,55,26.80
2015,07,02,12,56,26.90
2015,07,02,12,57,27.00
2015,07,02,12,58,27.00
2015,07,02,12,59,27.10
2015,07,02,13,00,27.00
2015,07,02,13,01,26.90
2015,07,02,13,02,26.90
2015,07,02,13,03,26.80
2015,07,02,13,04,26.80
2015,07,02,13,05,26.80
2015,07,02,13,06,26.80
2015,07,02,13,07,26.80
2015,07,02,13,08,26.90
2015,07,02,13,09,26.90
2015,07,02,13,10,26.90
2015,07,02,13,11,26.80
2015,07,02,13,12,26.80
2015,07,02,13,13,26.80
2015,07,02,13,14,26.80
2015,07,02,13,15,26.80
2015,07,02,13,16,26.80
2015,07,02,13,17,26.80
2015,07,02,13,18,26.70
2015,07,02,13,19,26.70
2015,07,02,13,20,26.70
2015,07,02,13,21,26.60
2015,07,02,13,22,26.60
2015,07,02,13,23,26.70
2015,07,02,13,24,26.70
2015,07,02,13,25,26.80
2015,07,02,13,26,26.80
2015,07,02,13,27,26.90
2015,07,02,13,28,27.00
2015,07,02,13,29,27.10
2015,07,02,13,30,27.10
2015,07,02,13,31,27.10
2015,07,02,13,32,27.20
2015,07,02,13,33,27.20
2015,07,02,13,34,27.20
2015,07,02,13,35,27.20
2015,07,02,13,36,27.20
2015,07,02,13,37,27.30
2015,07,02,13,38,27.40
2015,07,02,13,39,27.50
2015,07,02,13,40,27.50
2015,07,02,13,41,27.60
2015,07,02,13,42,27.70
2015,07,02,13,43,27.90
2015,07,02,13,44,28.00
2015,07,02,13,45,28.10
2015,07,02,13,46,28.20
2015,07,02,13,47,28.20
2015,07,02,13,48,28.30
2015,07,02,13,49,28.40
2015,07,02,13,50,28.50
2015,07,02,13,51,28.50
2015,07,02,13,52,28.60
2015,07,02,13,53,28.50
2015,07,02,13,54,28.40
2015,07,02,13,55,28.40
2015,07,02,13,56,28.40
2015,07,02,13,57,28.40
2015,07,02,13,58,28.40
2015,07,02,13,59,28.40
2015,07,02,14,00,28.50
2015,07,02,14,01,28.50
2015,07,02,14,02,28.50
2015,07,02,14,03,28.50
2015,07,02,14,04,28.50
2015,07,02,14,05,28.50
2015,07,02,14,06,28.40
2015,07,02,14,07,28.30
2015,07,02,14,08,28.30
2015,07,02,14,09,28.20
2015,07,02,14,10,28.20
2015,07,02,14,11,28.20
2015,07,02,14,12,28.20
2015,07,02,14,13,28.20
2015,07,02,14,14,28.10
2015,07,02,14,15,28.10
2015,07,02,14,16,28.10
2015,07,02,14,17,28.10
2015,07,02,14,18,28.20
2015,07,02,14,19,28.20
2015,07,02,14,20,28.20
2015,07,02,14,21,28.20
2015,07,02,14,22,28.30
2015,07,02,14,23,28.30
2015,07,02,14,24,28.20
2015,07,02,14,25,28.20
2015,07,02,14,26,28.20
2015,07,02,14,27,28.30
2015,07,02,14,28,28.40
2015,07,02,14,29,28.50
2015,07,02,14,30,28.60
2015,07,02,14,31,28.70
2015,07,02,14,32,28.70
2015,07,02,14,33,28.80
2015,07,02,14,34,28.80
2015,07,02,14,35,28.80
2015,07,02,14,36,28.90
2015,07,02,14,37,28.90
2015,07,02,14,38,29.00
2015,07,02,14,39,29.00
2015,07,02,14,40,29.10
2015,07,02,14,41,29.10
2015,07,02,14,42,29.10
2015,07,02,14,43,29.00
2015,07,02,14,44,28.90
2015,07,02,14,45,28.80
2015,07,02,14,46,28.80
2015,07,02,14,47,28.70
2015,07,02,14,48,28.80
2015,07,02,14,49,28.80
2015,07,02,14,50,28.90
2015,07,02,14,51,28.90
2015,07,02,14,52,28.90
2015,07,02,14,53,28.90
2015,07,02,14,54,28.90
2015,07,02,14,55,28.80
2015,07,02,14,56,28.80
2015,07,02,14,57,28.80
2015,07,02,14,58,28.80
2015,07,02,14,59,28.80
2015,07,02,15,00,28.80
2015,07,02,15,01,28.80
2015,07,02,15,02,28.80
2015,07,02,15,03,28.80
2015,07,02,15,04,28.70
2015,07,02,15,05,28.70
2015,07,02,15,06,28.60
2015,07,02,15,07,28.60
2015,07,02,15,08,28.60
2015,07,02,15,09,28.50
2015,07,02,15,10,28.40
2015,07,02,15,11,28.30
2015,07,02,15,12,28.30
2015,07,02,15,13,28.20
2015,07,02,15,14,28.10
2015,07,02,15,15,28.10
2015,07,02,15,16,28.00
2015,07,02,15,17,28.00
2015,07,02,15,18,28.00
2015,07,02,15,19,27.90
2015,07,02,15,20,27.90
2015,07,02,15,21,28.00
2015,07,02,15,22,28.00
2015,07,02,15,23,28.00
2015,07,02,15,24,27.90
2015,07,02,15,25,27.80
2015,07,02,15,26,27.80
2015,07,02,15,27,27.70
2015,07,02,15,28,27.80
2015,07,02,15,29,27.90
2015,07,02,15,30,28.00
2015,07,02,15,31,28.10
2015,07,02,15,32,28.20
2015,07,02,15,33,28.20
2015,07,02,15,34,28.20
2015,07,02,15,35,28.10
2015,07,02,15,36,28.10
2015,07,02,15,37,28.10
2015,07,02,15,38,28.20
2015,07,02,15,39,28.20
2015,07,02,15,40,28.20
2015,07,02,15,41,28.20
2015,07,02,15,42,28.20
2015,07,02,15,43,28.30
2015,07,02,15,44,28.30
2015,07,02,15,45,28.40
2015,07,02,15,46,28.40
2015,07,02,15,47,28.40
2015,07,02,15,48,28.40
2015,07,02,15,49,28.50
2015,07,02,15,50,28.50
2015,07,02,15,51,28.60
2015,07,02,15,52,28.60
2015,07,02,15,53,28.60
2015,07,02,15,54,28.60
2015,07,02,15,55,28.60
2015,07,02,15,56,28.60
2015,07,02,15,57,28.60
2015,07,02,15,58,28.50
2015,07,02,15,59,28.40
2015,07,02,16,00,28.40
2015,07,02,16,01,28.40
2015,07,02,16,02,28.30
2015,07,02,16,03,28.30
2015,07,02,16,04,28.30
2015,07,02,16,05,28.20
2015,07,02,16,06,28.20
2015,07,02,16,07,28.20
2015,07,02,16,08,28.20
2015,07,02,16,09,28.20
2015,07,02,16,10,28.20
2015,07,02,16,11,28.20
2015,07,02,16,12,28.30
2015,07,02,16,13,28.30
2015,07,02,16,14,28.30
2015,07,02,16,15,28.40
2015,07,02,16,16,28.50
2015,07,02,16,17,28.50
2015,07,02,16,18,28.60
2015,07,02,16,19,28.60
2015,07,02,16,20,28.60
2015,07,02,16,21,28.60
2015,07,02,16,22,28.70
2015,07,02,16,23,28.70
2015,07,02,16,24,28.80
2015,07,02,16,25,28.80
2015,07,02,16,26,28.70
2015,07,02,16,27,28.70
2015,07,02,16,28,28.80
2015,07,02,16,29,28.80
2015,07,02,16,30,28.70
2015,07,02,16,31,28.60
2015,07,02,16,32,28.50
2015,07,02,16,33,28.40
2015,07,02,16,34,28.40
2015,07,02,16,35,28.40
2015,07,02,16,36,28.50
2015,07,02,16,37,28.50
2015,07,02,16,38,28.50
2015,07,02,16,39,28.50
2015,07,02,16,40,28.50
2015,07,02,16,41,28.50
2015,07,02,16,42,28.50
2015,07,02,16,43,28.50
2015,07,02,16,44,28.50
2015,07,02,16,45,28.50
2015,07,02,16,46,28.40
2015,07,02,16,47,28.40
2015,07,02,16,48,28.50
2015,07,02,16,49,28.50
2015,07,02,16,50,28.60
2015,07,02,16,51,28.70
2015,07,02,16,52,28.70
2015,07,02,16,53,28.70
2015,07,02,16,54,28.70
2015,07,02,16,55,28.70
2015,07,02,16,56,28.70
2015,07,02,16,57,28.70
2015,07,02,16,58,28.70
2015,07,02,16,59,28.70
2015,07,02,17,00,28.60
2015,07,02,17,01,28.50
2015,07,02,17,02,28.30
2015,07,02,17,03,28.30
2015,07,02,17,04,28.20
2015,07,02,17,05,28.20
2015,07,02,17,06,28.20
2015,07,02,17,07,28.10
2015,07,02,17,08,28.00
2015,07,02,17,09,27.80
2015,07,02,17,10,27.70
2015,07,02,17,11,27.50
2015,07,02,17,12,27.40
2015,07,02,17,13,27.30
2015,07,02,17,14,27.20
2015,07,02,17,15,27.10
2015,07,02,17,16,27.00
2015,07,02,17,17,26.90
2015,07,02,17,18,26.90
2015,07,02,17,19,26.80